Starlink 32723

operational
NORAD ID: 62449 Int'l Des: 2024-251 Owner: SPXS Country: US Constellation: starlink
LEOCIRCULAR

Über Starlink 32723

Beschreibung wird geladen...

Live-Position

3D-Globus wird geladen...

Nächste Überflüge

Höhenverlauf

Altitude vs Time

uPlot chart will show altitude changes over time

Zweizeiliger Elementsatz

1 62449U 24251T 25305.56763496 .00027439 00000-0 93595-3 0 9999
2 62449 53.1578 210.3261 0001163 87.2271 272.8863 15.30171141 48179
Epoch: 1. Nov. 2025 • Age: 15 hours

Aktueller Status

Höhe 477.7 km
Geschwindigkeit 7.63 km/s
Subsatellitenpunkt -8.33°S, 76.4°W
Startdatum 29. Dez. 2024
Alter 0.8 years
Typ internet

Technische Details

Klassifizierung Payload
Masse 730.00 kg
Trockenmasse 700.00 kg
Gesamtmasse 730.00 kg
Länge 0.30 m
Durchmesser 4.10 m
Spannweite 29.00 m
Form Box + pan
Hersteller SPXS
Bus-Typ Starlink V2M
Phasenstatus In Orbit
Besitzer/Staat SPXS/US

Große Konstellationen

Loading constellations...